Location: City of Moscow
(46.7306°N, 116.9989°W)
Time: 16:47:38
(UTC+00:00)

SL-08 ROCKET BODY - Pass Details

Date: 11 December 2025
Orbit: 896 x 961 km, 82.9° (Epoch: 16 January)

Event Time Altitude Azimuth Distance (km) Brightness Sun altitude
Rises 13:35:33 0° 182° (S) 3,507 7.6 -17.5°
Reaches altitude 10° 13:37:59 10° 181° (S) 2,567 6.9 -17.1°
Maximum altitude 13:43:48 77° 96° (E) 923 4.5 -16.2°
Drops below altitude 10° 13:49:40 10° 11° (NNE) 2,584 6.7 -15.2°
Sets 13:52:08 0° 10° (N) 3,532 7.4 -14.8°
